Regional Weather Roundup
Issued by NWS Northern Indiana

Home | Current Version | Previous Version | Graphics & Text | Print | Product List | Glossary On
Versions: 1 2 3 4 5 6 7 8 9 10 11 12 13 14 15 16 17 18 19 20 21 22 23 24 25 26 27 28 29 30 31 32 33 34 35 36 37 38 39 40 41 42 43 44 45 46 47 48 49 50
000
ASUS43 KIWX 280900
RWRIWX

KIWX WEATHER ROUNDUP
NATIONAL WEATHER SERVICE NORTHERN INDIANA
500 AM EDT MON JUL 28 2014

NOTE: "FAIR" INDICATES FEW OR NO CLOUDS BELOW 12,000 FEET WITH NO
SIGNIFICANT WEATHER AND/OR OBSTRUCTIONS TO VISIBILITY.

* THESE STATIONS ARE NOT UNDER NWS QUALITY CONTROL. THEY ALSO MAY NOT
  REPORT WEATHER SUCH AS PRECIPITATION OR FOG.

INZ001>027-281000-
NORTHERN INDIANA

CITY           SKY/WX    TMP DP  RH WIND       PRES   REMARKS
VALPARAISO     MOCLDY    61  54  77 N14G22    29.91R
SOUTH BEND     CLEAR     61  56  83 NW10      29.88R
GOSHEN         CLOUDY    64  59  83 NW7       29.85R
ANGOLA*        CLOUDY    63  54  72 NW7       29.82R
FORT WAYNE     CLOUDY    63  58  83 NW10      29.83R
PERU/GRISSOM   CLOUDY    63  62  98 NW12      29.87R

$$
INZ028>050-281000-
CENTRAL INDIANA

CITY           SKY/WX    TMP DP  RH WIND       PRES   REMARKS
LAFAYETTE      CLOUDY    62  56  80 NW12      29.91R
KOKOMO*        CLOUDY    63  57  82 NW13G18   29.87R
MUNCIE*        CLOUDY    63  58  83 W10       29.85R
INDIANAPOLIS   MOCLDY    63  58  83 NW14      29.88R

$$
MIZ043>046-050>051-056>058-064>065-071>073-077>080-281000-
SOUTHWEST LOWER MICHIGAN

CITY           SKY/WX    TMP DP  RH WIND       PRES   REMARKS
BATTLE CREEK   MOCLDY    63  59  87 N8        29.83R
BENTON HARBOR  PTCLDY    59  55  87 N9        29.88R
COLDWATER*     CLOUDY    64  60  86 N9        29.82R
HILLSDALE*     CLOUDY    63  62  96 NW9       29.80R
HOLLAND        CLEAR     60  55  83 NW7       29.88R
GRAND RAPIDS   CLEAR     60  57  89 N12       29.85R
KALAMAZOO      CLOUDY    63  59  87 N14       29.84R
STURGIS*       MOCLDY    61  61 100 NW7       29.83R
THREE RIVERS*  CLOUDY    64  61  91 NW6       29.85R

$$
OHZ001>008-015>018-024>025-281000-
NORTHWEST OHIO

CITY           SKY/WX    TMP DP  RH WIND       PRES   REMARKS
DEFIANCE       MOCLDY    62  58  86 VRB3      29.80R
FINDLAY        CLOUDY    62  59  90 W9        29.77R
TOLEDO EXPRESS CLOUDY    61  58  90 W8        29.75R
TOLEDO METCALF CLOUDY    63  57  81 NW15      29.75R
LIMA           CLOUDY    62  59  90 W9        29.80R

$$
&&



USA.gov is the U.S. government's official web portal to all federal, state and local government web resources and services.